When you browse on this site, cookies collect data to enhance your experience and personalize the content and advertising you see.
Visit our Privacy Policy to learn more. By continuing to use the site, you agree to this use of cookies and data.
  • In Austria
  • List of Countries
  • For 7 days
  • Water Temperature
  • Satellite Maps
  • Weather Map
  • News
  • Weather Widgets
  • user-avatar
    Login

    Hourly Weather Naftalan

    Today, 19 May, Sunday

    Time Temperature Precipitation Wind Pressure Humidity
    00:00 +21°C° 0 mm 4 mps 758 mmHg 76%
    01:00 +21°C° 0 mm 4 mps 758 mmHg 77%
    02:00 +21°C° 0 mm 3 mps 758 mmHg 78%
    03:00 +21°C° 0 mm 3 mps 758 mmHg 79%
    04:00 +21°C° 0 mm 3 mps 758 mmHg 78%
    05:00 +22°C° 0 mm 3 mps 758 mmHg 77%
    06:00 +22°C° 0 mm 3 mps 758 mmHg 76%
    07:00 +25°C° 0 mm 3 mps 758 mmHg 72%
    08:00 +26°C° 0 mm 2 mps 758 mmHg 68%
    09:00 +28°C° 0 mm 3 mps 757 mmHg 61%
    10:00 +29°C° 0 mm 3 mps 757 mmHg 57%
    11:00 +30°C° 0 mm 4 mps 757 mmHg 52%
    12:00 +32°C° 0 mm 5 mps 757 mmHg 48%
    13:00 +32°C° 0 mm 5 mps 756 mmHg 47%
    14:00 +30°C° 0 mm 5 mps 756 mmHg 46%
    15:00 +32°C° 0 mm 4 mps 756 mmHg 43%
    16:00 +29°C° 0.5 mm 4 mps 756 mmHg 48%
    17:00 +28°C° 0.5 mm 4 mps 756 mmHg 53%
    18:00 +26°C° 0.5 mm 4 mps 756 mmHg 58%
    19:00 +26°C° 0 mm 3 mps 757 mmHg 59%
    20:00 +25°C° 0 mm 3 mps 757 mmHg 61%
    21:00 +25°C° 0 mm 3 mps 758 mmHg 63%
    22:00 +23°C° 0.1 mm 4 mps 758 mmHg 65%
    23:00 +23°C° 0.1 mm 6 mps 758 mmHg 67%

    Tomorrow, 20 May, Monday

    Time Temperature Precipitation Wind Pressure Humidity
    00:00 +23°C° 0.1 mm 7 mps 758 mmHg 69%
    01:00 +22°C° 0.4 mm 6 mps 758 mmHg 72%
    02:00 +22°C° 0.4 mm 5 mps 758 mmHg 75%
    03:00 +21°C° 0.4 mm 4 mps 758 mmHg 78%
    04:00 +21°C° 0 mm 4 mps 759 mmHg 76%
    05:00 +22°C° 0 mm 4 mps 759 mmHg 75%
    06:00 +22°C° 0 mm 4 mps 759 mmHg 73%
    07:00 +23°C° 0 mm 4 mps 760 mmHg 67%
    08:00 +25°C° 0 mm 4 mps 760 mmHg 62%
    09:00 +27°C° 0 mm 5 mps 760 mmHg 57%
    10:00 +27°C° 0 mm 6 mps 760 mmHg 53%
    11:00 +28°C° 0 mm 6 mps 760 mmHg 49%
    12:00 +29°C° 0 mm 7 mps 760 mmHg 45%
    13:00 +28°C° 0 mm 8 mps 760 mmHg 44%
    14:00 +28°C° 0 mm 8 mps 760 mmHg 43%
    15:00 +28°C° 0 mm 9 mps 760 mmHg 42%
    16:00 +27°C° 0 mm 8 mps 760 mmHg 43%
    17:00 +26°C° 0 mm 7 mps 761 mmHg 44%
    18:00 +24°C° 0 mm 6 mps 761 mmHg 45%
    19:00 +23°C° 0 mm 6 mps 762 mmHg 47%
    20:00 +23°C° 0 mm 5 mps 762 mmHg 50%
    21:00 +22°C° 0 mm 4 mps 762 mmHg 52%
    22:00 +21°C° 0 mm 3 mps 763 mmHg 54%
    23:00 +21°C° 0 mm 3 mps 763 mmHg 55%

    Day after tomorrow, 21 May, Tuesday

    Time Temperature Precipitation Wind Pressure Humidity
    00:00 +20°C° 0 mm 3 mps 763 mmHg 57%
    01:00 +20°C° 0 mm 3 mps 763 mmHg 57%
    02:00 +20°C° 0 mm 3 mps 763 mmHg 57%
    03:00 +20°C° 0 mm 4 mps 763 mmHg 57%
    04:00 +20°C° 0 mm 4 mps 764 mmHg 55%
    05:00 +21°C° 0 mm 5 mps 764 mmHg 54%
    06:00 +21°C° 0 mm 5 mps 764 mmHg 53%
    07:00 +22°C° 0 mm 6 mps 765 mmHg 50%
    08:00 +23°C° 0 mm 7 mps 765 mmHg 47%
    09:00 +24°C° 0 mm 7 mps 765 mmHg 44%
    10:00 +26°C° 0 mm 7 mps 766 mmHg 43%
    11:00 +26°C° 0 mm 8 mps 766 mmHg 42%
    12:00 +27°C° 0 mm 8 mps 766 mmHg 41%
    13:00 +26°C° 0 mm 8 mps 766 mmHg 40%
    14:00 +26°C° 0 mm 8 mps 766 mmHg 39%
    15:00 +26°C° 0 mm 8 mps 766 mmHg 38%
    16:00 +24°C° 0 mm 7 mps 767 mmHg 40%
    17:00 +23°C° 0 mm 7 mps 767 mmHg 42%
    18:00 +22°C° 0 mm 6 mps 767 mmHg 44%
    19:00 +21°C° 0 mm 5 mps 767 mmHg 46%
    20:00 +20°C° 0 mm 4 mps 768 mmHg 49%
    21:00 +20°C° 0 mm 3 mps 768 mmHg 51%
    22:00 +19°C° 0 mm 3 mps 768 mmHg 52%
    23:00 +19°C° 0 mm 3 mps 768 mmHg 53%

    22 May, Wednesday

    Time Temperature Precipitation Wind Pressure Humidity
    00:00 +19°C° 0 mm 2 mps 768 mmHg 54%
    01:00 +18°C° 0 mm 2 mps 767 mmHg 55%
    02:00 +18°C° 0 mm 2 mps 767 mmHg 56%
    03:00 +18°C° 0 mm 2 mps 767 mmHg 58%
    04:00 +18°C° 0 mm 2 mps 767 mmHg 56%
    05:00 +19°C° 0 mm 2 mps 767 mmHg 55%
    06:00 +19°C° 0 mm 2 mps 767 mmHg 54%
    07:00 +20°C° 0 mm 2 mps 766 mmHg 49%
    08:00 +21°C° 0 mm 2 mps 766 mmHg 44%
    09:00 +23°C° 0 mm 2 mps 766 mmHg 39%
    10:00 +24°C° 0 mm 2 mps 766 mmHg 37%
    11:00 +25°C° 0 mm 3 mps 765 mmHg 35%
    12:00 +26°C° 0 mm 3 mps 764 mmHg 33%
    13:00 +27°C° 0 mm 4 mps 764 mmHg 33%
    14:00 +27°C° 0 mm 4 mps 763 mmHg 34%
    15:00 +27°C° 0 mm 4 mps 762 mmHg 35%
    16:00 +26°C° 0 mm 4 mps 762 mmHg 38%
    17:00 +25°C° 0 mm 4 mps 762 mmHg 41%
    18:00 +23°C° 0 mm 4 mps 761 mmHg 45%
    19:00 +22°C° 0 mm 3 mps 762 mmHg 50%
    20:00 +21°C° 0 mm 2 mps 762 mmHg 55%
    21:00 +21°C° 0 mm 2 mps 762 mmHg 60%
    22:00 +20°C° 0 mm 2 mps 762 mmHg 60%
    23:00 +20°C° 0 mm 2 mps 762 mmHg 60%

    23 May, Thursday

    Time Temperature Precipitation Wind Pressure Humidity
    00:00 +20°C° 0 mm 3 mps 762 mmHg 59%
    01:00 +20°C° 0 mm 3 mps 762 mmHg 59%
    02:00 +20°C° 0 mm 4 mps 762 mmHg 59%
    03:00 +20°C° 0 mm 5 mps 761 mmHg 59%
    04:00 +20°C° 0 mm 5 mps 762 mmHg 60%
    05:00 +21°C° 0 mm 5 mps 762 mmHg 62%
    06:00 +21°C° 0 mm 5 mps 762 mmHg 63%
    07:00 +23°C° 0 mm 5 mps 762 mmHg 57%
    08:00 +25°C° 0 mm 5 mps 762 mmHg 50%
    09:00 +27°C° 0 mm 4 mps 762 mmHg 44%
    10:00 +27°C° 0 mm 4 mps 762 mmHg 43%
    11:00 +28°C° 0 mm 4 mps 762 mmHg 43%
    12:00 +28°C° 0 mm 5 mps 761 mmHg 42%
    13:00 +28°C° 0 mm 5 mps 761 mmHg 46%
    14:00 +27°C° 0 mm 6 mps 761 mmHg 49%
    15:00 +26°C° 0 mm 6 mps 760 mmHg 52%
    16:00 +24°C° 0 mm 6 mps 761 mmHg 55%
    17:00 +24°C° 0 mm 6 mps 761 mmHg 57%
    18:00 +23°C° 0 mm 5 mps 761 mmHg 60%
    19:00 +23°C° 0 mm 5 mps 762 mmHg 62%
    20:00 +22°C° 0 mm 4 mps 762 mmHg 65%
    21:00 +22°C° 0 mm 4 mps 763 mmHg 67%
    22:00 +21°C° 0 mm 4 mps 763 mmHg 67%
    23:00 +21°C° 0 mm 3 mps 763 mmHg 68%

    24 May, Friday

    Time Temperature Precipitation Wind Pressure Humidity
    00:00 +21°C° 0 mm 3 mps 762 mmHg 68%
    01:00 +21°C° 0 mm 3 mps 762 mmHg 69%
    02:00 +20°C° 0 mm 2 mps 762 mmHg 69%
    03:00 +20°C° 0 mm 2 mps 762 mmHg 70%
    04:00 +20°C° 0 mm 2 mps 762 mmHg 69%
    05:00 +22°C° 0 mm 1 mps 762 mmHg 67%
    06:00 +22°C° 0 mm 1 mps 763 mmHg 66%
    07:00 +23°C° 0 mm 1 mps 763 mmHg 63%
    08:00 +24°C° 0 mm 1 mps 763 mmHg 59%
    09:00 +24°C° 0 mm 2 mps 763 mmHg 56%
    10:00 +25°C° 0 mm 2 mps 762 mmHg 53%
    11:00 +26°C° 0 mm 3 mps 762 mmHg 51%
    12:00 +27°C° 0 mm 3 mps 762 mmHg 48%
    13:00 +27°C° 0 mm 4 mps 762 mmHg 48%
    14:00 +27°C° 0 mm 4 mps 761 mmHg 48%
    15:00 +27°C° 0 mm 5 mps 761 mmHg 48%
    16:00 +26°C° 0 mm 5 mps 761 mmHg 52%
    17:00 +26°C° 0 mm 5 mps 761 mmHg 56%
    18:00 +25°C° 0 mm 5 mps 762 mmHg 60%
    19:00 +23°C° 0 mm 5 mps 762 mmHg 64%
    20:00 +23°C° 0 mm 5 mps 762 mmHg 69%
    21:00 +22°C° 0 mm 5 mps 763 mmHg 73%
    22:00 +22°C° 0 mm 5 mps 762 mmHg 75%
    23:00 +22°C° 0 mm 4 mps 762 mmHg 78%
    Show more